Location: Salillas
(41.9950°N, 0.2228°W)
Time: 19:50:46
(UTC+00:00)

Meteor 1-16 Rocket - Pass Details

Date: 29 March 2020
Orbit: 790 x 907 km, 81.2° (Epoch: 30 May)

Event Time Altitude Azimuth Distance (km) Brightness Sun altitude
Exits shadow 20:54:05 67° 208° (SSW) 868 4.1 -27.0°
Maximum altitude 20:54:49 82° 280° (W) 815 4.0 -27.1°
Drops below altitude 10° 21:00:16 10° 8° (N) 2,417 6.9 -27.9°
Sets 21:02:42 0° 10° (N) 3,370 7.7 -28.3°
